Miscellaneous Local Product
Issued by NWS Hastings, NE

Home | Current Version | Previous Version | Graphics & Text | Print | Product List | Glossary On
Versions: 1 2 3 4 5 6 7 8 9 10 11 12 13 14 15 16 17 18 19 20 21 22 23 24 25 26 27 28 29 30 31 32 33 34 35 36 37 38 39 40 41 42 43 44 45 46 47 48 49 50
849
AXUS43 KGID 202302
MISGRI

GID CWA HOURLY WEATHER ROUNDUP
NATIONAL WEATHER SERVICE HASTINGS NE
600 PM CDT WED MAY 20 2015

NOTE: "FAIR" INDICATES FEW OR NO CLOUDS BELOW 12,000 FEET WITH NO
SIGNIFICANT WEATHER AND/OR OBSTRUCTIONS TO VISIBILITY.

...SOUTH CENTRAL NEBRASKA...

CITY           SKY/WX    TMP DP  RH WIND       PRES   REMARKS
GRAND ISLAND   CLOUDY    48  41  76 N8        30.28S
HASTINGS       CLOUDY    50  41  71 N13       30.26S
KEARNEY        CLOUDY    48  37  66 N9        30.27F
ORD            CLOUDY    48  39  71 N9        30.27S
YORK           CLOUDY    48  41  76 NE12G18   30.26S
AURORA         CLOUDY    48  42  78 N9        30.27S
LEXINGTON      CLOUDY    50  41  70 N12       30.27S
HOLDREGE       CLOUDY    50  40  68 N14       30.26F
HEBRON         LGT RAIN  49  41  73 NE18      30.25S

...NEBRASKA PANHANDLE...

CITY           SKY/WX    TMP DP  RH WIND       PRES   REMARKS
CHADRON        CLOUDY    47  35  63 CALM      30.30F
ALLIANCE       CLOUDY    44  34  67 NE7       30.29S
SCOTTSBLUFF    CLOUDY    46  34  62 NE8       30.29F
SIDNEY         CLOUDY    45  34  65 NE8       30.28F

...WESTERN AND NORTH CENTRAL NEBRASKA...

CITY           SKY/WX    TMP DP  RH WIND       PRES   REMARKS
VALENTINE      CLOUDY    51  35  54 CALM      30.29F
AINSWORTH      CLOUDY    49  38  67 W7        30.29S
ONEILL         CLOUDY    51  38  61 CALM      30.28F
BROKEN BOW     CLOUDY    49  39  68 N9        30.27F
IMPERIAL       CLOUDY    49  36  61 N8        30.27F
NORTH PLATTE   CLOUDY    50  37  61 N7        30.27S
MCCOOK         CLOUDY    52  36  54 N7        30.26F

...EASTERN NEBRASKA...

CITY           SKY/WX    TMP DP  RH WIND       PRES   REMARKS
NORFOLK        CLOUDY    51  38  60 N8        30.26S
SO SIOUX CITY  CLOUDY    51  40  65 SE5       30.26S
TEKAMAH        CLOUDY    51  41  68 N12       30.25S
COLUMBUS       CLOUDY    48  36  61 N9        30.29S
ALBION         CLOUDY    48  39  72 N6        30.27S
OMAHA EPPLEY   CLOUDY    51  42  71 NE10      30.23F
MILLARD        CLOUDY    51  42  73 CALM      30.23F
LINCOLN        CLOUDY    51  41  68 N12       30.25F
NEBRASKA CITY  CLOUDY    49  43  79 N12       30.22S
BEATRICE       PTSUNNY   53  43  69 N10       30.23S
FALLS CITY     CLOUDY    51  45  79 N9        30.21R

...NORTHERN KANSAS...

CITY           SKY/WX    TMP DP  RH WIND       PRES   REMARKS
GOODLAND       CLOUDY    48  37  65 N9        30.26F
HILL CITY      CLOUDY    52  40  63 N13       30.26S
NORTON         CLOUDY    50  37  62 N15       30.25S
PHILLIPSBURG   PTSUNNY   55  43  62 N12       30.26S
SMITH CENTER   CLOUDY    50  41  71 N13       30.26S
HAYS           CLOUDY    54  37  54 N16       30.24S
RUSSELL        CLOUDY    52  43  71 N14       30.22S
CONCORDIA      CLOUDY    53  44  71 N9        30.23S
SALINA         CLOUDY    55  44  66 N13       30.22S
TOPEKA         CLOUDY    53  47  79 N14       30.20R



USA.gov is the U.S. government's official web portal to all federal, state and local government web resources and services.